Time,TemperatureF,DewpointF,PressureIn,WindDirection,WindDirectionDegrees,WindSpeedMPH,WindSpeedGustMPH,Humidity,HourlyPrecipIn,Conditions,Clouds,dailyrainin,SoftwareType,DateUTC
2013-08-24 00:12:00,54.7,53.6,29.82,NNW,338,0.0,0.0,96,0.00,,---,0.00,VWS V14.01,2013-08-24 07:12:00,
2013-08-24 00:22:00,54.6,53.5,29.82,NNW,337,0.0,0.0,96,0.00,,---,0.00,VWS V14.01,2013-08-24 07:22:00,
2013-08-24 00:27:00,54.5,53.4,29.82,NNW,338,0.0,0.0,96,0.00,,---,0.00,VWS V14.01,2013-08-24 07:27:00,
2013-08-24 00:42:00,54.4,53.3,29.82,NNW,337,0.0,0.0,96,0.00,,---,0.00,VWS V14.01,2013-08-24 07:42:00,
2013-08-24 00:52:00,54.3,53.2,29.82,NNW,338,0.0,0.0,96,0.00,,---,0.00,VWS V14.01,2013-08-24 07:52:00,
2013-08-24 00:57:00,54.1,53.0,29.82,NNW,338,0.0,0.0,96,0.00,,---,0.00,VWS V14.01,2013-08-24 07:57:00,
2013-08-24 01:12:00,53.9,52.8,29.82,NNW,338,0.0,0.0,96,0.00,,---,0.00,VWS V14.01,2013-08-24 08:12:00,
2013-08-24 01:22:00,53.8,52.7,29.82,NNW,337,0.0,0.0,96,0.00,,---,0.00,VWS V14.01,2013-08-24 08:22:00,
2013-08-24 01:27:00,53.7,52.6,29.83,NNW,337,0.0,0.0,96,0.00,,---,0.00,VWS V14.01,2013-08-24 08:27:00,
2013-08-24 01:42:00,53.6,52.8,29.83,NNW,338,0.0,0.0,97,0.00,,---,0.00,VWS V14.01,2013-08-24 08:42:00,
2013-08-24 01:52:00,53.5,52.7,29.83,NNW,338,0.0,0.0,97,0.00,,---,0.00,VWS V14.01,2013-08-24 08:52:00,
2013-08-24 01:57:00,53.4,52.6,29.83,NNW,337,0.0,0.0,97,0.00,,---,0.00,VWS V14.01,2013-08-24 08:57:00,
2013-08-24 02:12:00,53.3,52.5,29.83,NNW,337,0.0,0.0,97,0.00,,---,0.00,VWS V14.01,2013-08-24 09:12:00,
2013-08-24 02:22:00,53.2,52.4,29.83,NNW,338,0.0,0.0,97,0.00,,---,0.00,VWS V14.01,2013-08-24 09:22:00,
2013-08-24 02:27:00,53.1,52.3,29.83,NNW,338,0.0,0.0,97,0.00,,---,0.00,VWS V14.01,2013-08-24 09:27:00,
2013-08-24 02:42:00,53.0,52.2,29.82,NNW,338,0.0,0.0,97,0.00,,---,0.00,VWS V14.01,2013-08-24 09:42:00,
2013-08-24 02:52:00,52.9,52.1,29.82,NNW,337,0.0,0.0,97,0.00,,---,0.00,VWS V14.01,2013-08-24 09:52:00,
2013-08-24 02:57:00,52.9,52.1,29.83,NNW,337,0.0,0.0,97,0.00,,---,0.00,VWS V14.01,2013-08-24 09:57:00,
2013-08-24 03:12:00,52.7,51.9,29.83,NNW,337,0.0,0.0,97,0.00,,---,0.00,VWS V14.01,2013-08-24 10:12:00,
2013-08-24 03:22:00,52.7,51.9,29.83,NNW,337,0.0,0.0,97,0.00,,---,0.00,VWS V14.01,2013-08-24 10:22:00,
2013-08-24 03:27:00,52.6,51.8,29.83,NNW,338,0.0,0.0,97,0.00,,---,0.00,VWS V14.01,2013-08-24 10:27:00,
2013-08-24 03:42:00,52.6,51.8,29.83,NNW,338,0.0,0.0,97,0.00,,---,0.00,VWS V14.01,2013-08-24 10:42:00,
2013-08-24 03:52:00,52.6,52.0,29.83,NNW,337,0.0,0.0,98,0.00,,---,0.00,VWS V14.01,2013-08-24 10:52:00,
2013-08-24 03:57:00,52.6,52.0,29.83,NNW,338,0.0,0.0,98,0.00,,---,0.00,VWS V14.01,2013-08-24 10:57:00,
2013-08-24 04:12:00,52.4,51.6,29.83,NNW,338,0.0,0.0,97,0.00,,---,0.00,VWS V14.01,2013-08-24 11:12:00,
2013-08-24 04:22:00,52.1,51.3,29.82,NNW,338,0.0,0.0,97,0.00,,---,0.00,VWS V14.01,2013-08-24 11:22:00,
2013-08-24 04:27:00,52.0,51.2,29.82,NNW,338,0.0,0.0,97,0.00,,---,0.00,VWS V14.01,2013-08-24 11:27:00,
2013-08-24 04:42:00,51.8,51.0,29.82,NNW,338,0.0,0.0,97,0.00,,---,0.00,VWS V14.01,2013-08-24 11:42:00,
2013-08-24 04:52:00,51.6,50.8,29.83,NNW,338,0.0,0.0,97,0.00,,---,0.00,VWS V14.01,2013-08-24 11:52:00,
2013-08-24 04:57:00,51.6,50.8,29.83,NNW,337,0.0,0.0,97,0.00,,---,0.00,VWS V14.01,2013-08-24 11:57:00,
2013-08-24 05:12:00,51.5,50.9,29.82,NNW,338,0.0,0.0,98,0.00,,---,0.00,VWS V14.01,2013-08-24 12:12:00,
2013-08-24 05:22:00,51.4,50.8,29.83,NNW,338,0.0,0.0,98,0.00,,---,0.00,VWS V14.01,2013-08-24 12:22:00,
2013-08-24 05:27:00,51.3,50.7,29.83,NNW,338,0.0,0.0,98,0.00,,---,0.00,VWS V14.01,2013-08-24 12:27:00,
2013-08-24 05:42:00,51.1,50.5,29.83,NNW,338,0.0,0.0,98,0.00,,---,0.00,VWS V14.01,2013-08-24 12:42:00,
2013-08-24 05:52:00,51.0,50.4,29.83,NNW,338,0.0,0.0,98,0.00,,---,0.00,VWS V14.01,2013-08-24 12:52:00,
2013-08-24 05:58:00,51.0,50.4,29.83,NNW,338,0.0,0.0,98,0.00,,---,0.00,VWS V14.01,2013-08-24 12:58:00,
2013-08-24 06:12:00,50.7,50.1,29.84,NNW,338,0.0,0.0,98,0.00,,---,0.00,VWS V14.01,2013-08-24 13:12:00,
2013-08-24 06:22:00,50.7,50.1,29.84,NNW,338,0.0,0.0,98,0.00,,---,0.00,VWS V14.01,2013-08-24 13:22:00,
2013-08-24 06:28:00,50.6,50.0,29.84,NNW,338,0.0,0.0,98,0.00,,---,0.00,VWS V14.01,2013-08-24 13:28:00,
2013-08-24 06:42:00,50.4,49.8,29.84,NNW,338,0.0,0.0,98,0.00,,---,0.00,VWS V14.01,2013-08-24 13:42:00,
2013-08-24 06:52:00,50.2,49.7,29.85,NNW,338,0.0,0.0,98,0.00,,---,0.00,VWS V14.01,2013-08-24 13:52:00,
2013-08-24 06:58:00,50.1,49.5,29.85,NNW,337,0.0,0.0,98,0.00,,---,0.00,VWS V14.01,2013-08-24 13:58:00,
2013-08-24 07:12:00,50.1,49.5,29.85,NNW,337,0.0,0.0,98,0.00,,---,0.00,VWS V14.01,2013-08-24 14:12:00,
2013-08-24 07:22:00,50.1,49.5,29.85,NNW,337,0.0,0.0,98,0.00,,---,0.00,VWS V14.01,2013-08-24 14:22:00,
2013-08-24 07:28:00,50.2,49.9,29.85,NNW,338,0.0,0.0,99,0.00,,---,0.00,VWS V14.01,2013-08-24 14:28:00,
2013-08-24 07:42:00,50.4,50.1,29.85,NNW,337,0.0,0.0,99,0.00,,---,0.00,VWS V14.01,2013-08-24 14:42:00,
2013-08-24 07:52:00,50.6,50.3,29.85,NNW,338,0.0,0.0,99,0.00,,---,0.00,VWS V14.01,2013-08-24 14:52:00,
2013-08-24 07:58:00,50.6,50.3,29.85,NNW,337,0.0,0.0,99,0.00,,---,0.00,VWS V14.01,2013-08-24 14:58:00,
2013-08-24 08:12:00,51.0,50.7,29.86,NNW,338,0.0,0.0,99,0.00,,---,0.00,VWS V14.01,2013-08-24 15:12:00,
2013-08-24 08:22:00,51.4,51.1,29.85,NNW,338,0.0,0.0,99,0.00,,---,0.00,VWS V14.01,2013-08-24 15:22:00,
2013-08-24 08:28:00,51.7,51.4,29.85,NNW,338,0.0,0.0,99,0.00,,---,0.00,VWS V14.01,2013-08-24 15:28:00,
2013-08-24 08:42:00,52.4,52.4,29.85,NNW,338,0.0,0.0,100,0.00,,---,0.00,VWS V14.01,2013-08-24 15:42:00,
2013-08-24 08:52:00,53.2,53.2,29.86,NNW,338,0.0,0.0,100,0.00,,---,0.00,VWS V14.01,2013-08-24 15:52:00,
2013-08-24 08:58:00,54.1,53.5,29.86,NW,322,0.0,0.0,98,0.00,,---,0.00,VWS V14.01,2013-08-24 15:58:00,
2013-08-24 09:12:00,56.0,53.7,29.86,NW,322,0.0,0.0,92,0.00,,---,0.00,VWS V14.01,2013-08-24 16:12:00,
2013-08-24 09:22:00,57.1,54.8,29.86,NW,323,0.0,0.0,92,0.00,,---,0.00,VWS V14.01,2013-08-24 16:22:00,
2013-08-24 09:28:00,57.5,54.9,29.86,NW,322,0.0,0.0,91,0.00,,---,0.00,VWS V14.01,2013-08-24 16:28:00,
2013-08-24 09:42:00,58.5,55.6,29.86,NW,322,0.0,0.0,90,0.00,,---,0.00,VWS V14.01,2013-08-24 16:42:00,
2013-08-24 09:52:00,59.6,56.0,29.86,NW,317,0.0,1.0,88,0.00,,---,0.00,VWS V14.01,2013-08-24 16:52:00,
2013-08-24 09:58:00,60.1,56.2,29.86,NW,318,0.0,0.0,87,0.00,,---,0.00,VWS V14.01,2013-08-24 16:58:00,
2013-08-24 10:12:00,61.6,56.7,29.86,NW,317,0.0,0.0,84,0.00,,---,0.00,VWS V14.01,2013-08-24 17:12:00,
2013-08-24 10:22:00,62.7,56.8,29.87,NW,318,0.0,0.0,81,0.00,,---,0.00,VWS V14.01,2013-08-24 17:22:00,
2013-08-24 10:28:00,63.5,57.6,29.86,NW,318,0.0,0.0,81,0.00,,---,0.00,VWS V14.01,2013-08-24 17:28:00,
2013-08-24 10:42:00,65.0,58.3,29.87,NW,318,0.0,0.0,79,0.00,,---,0.00,VWS V14.01,2013-08-24 17:42:00,
2013-08-24 10:52:00,66.4,59.0,29.87,WNW,294,0.0,1.0,77,0.00,,---,0.00,VWS V14.01,2013-08-24 17:52:00,
2013-08-24 10:58:00,67.0,58.8,29.87,WNW,300,0.0,2.0,75,0.00,,---,0.00,VWS V14.01,2013-08-24 17:58:00,
2013-08-24 11:12:00,67.4,58.4,29.87,SE,141,0.0,0.0,73,0.00,,---,0.00,VWS V14.01,2013-08-24 18:12:00,
2013-08-24 11:22:00,67.7,58.7,29.86,SE,141,0.0,1.0,73,0.00,,---,0.00,VWS V14.01,2013-08-24 18:22:00,
2013-08-24 11:28:00,68.1,59.1,29.86,SE,141,0.0,0.0,73,0.00,,---,0.00,VWS V14.01,2013-08-24 18:28:00,
2013-08-24 11:42:00,68.7,59.3,29.86,SE,141,0.0,1.0,72,0.00,,---,0.00,VWS V14.01,2013-08-24 18:42:00,
2013-08-24 11:52:00,68.6,58.8,29.86,SE,141,0.0,2.0,71,0.00,,---,0.00,VWS V14.01,2013-08-24 18:52:00,
2013-08-24 11:58:00,67.6,57.8,29.86,SE,125,0.0,3.0,71,0.00,,---,0.00,VWS V14.01,2013-08-24 18:58:00,
2013-08-24 12:12:00,66.1,57.6,29.86,SE,125,0.0,1.0,74,0.00,,---,0.00,VWS V14.01,2013-08-24 19:12:00,
2013-08-24 12:22:00,65.6,57.5,29.86,SE,125,0.0,3.0,75,0.00,,---,0.00,VWS V14.01,2013-08-24 19:22:00,
2013-08-24 12:28:00,66.0,57.8,29.86,South,191,0.0,5.0,75,0.00,,---,0.00,VWS V14.01,2013-08-24 19:28:00,
2013-08-24 12:41:00,68.2,58.4,29.86,South,174,0.0,4.0,71,0.00,,---,0.00,VWS V14.01,2013-08-24 19:41:00,
2013-08-24 12:52:00,68.9,58.3,29.86,SE,136,4.0,8.0,69,0.00,,---,0.00,VWS V14.01,2013-08-24 19:52:00,
2013-08-24 12:58:00,68.4,58.2,29.85,SSE,151,4.0,10.0,70,0.00,,---,0.00,VWS V14.01,2013-08-24 19:58:00,
2013-08-24 13:12:00,69.4,58.8,29.85,East,84,1.0,4.0,69,0.00,,---,0.00,VWS V14.01,2013-08-24 20:12:00,
2013-08-24 13:22:00,70.2,59.1,29.85,East,81,0.0,5.0,68,0.00,,---,0.00,VWS V14.01,2013-08-24 20:22:00,
2013-08-24 13:28:00,70.3,58.8,29.85,SSE,165,1.0,8.0,67,0.00,,---,0.00,VWS V14.01,2013-08-24 20:28:00,
2013-08-24 13:42:00,69.6,58.6,29.85,South,181,3.0,8.0,68,0.00,,---,0.00,VWS V14.01,2013-08-24 20:42:00,
2013-08-24 13:52:00,69.3,58.3,29.85,East,96,3.0,5.0,68,0.00,,---,0.00,VWS V14.01,2013-08-24 20:52:00,
2013-08-24 13:58:00,68.8,58.2,29.85,ESE,103,0.0,5.0,69,0.00,,---,0.00,VWS V14.01,2013-08-24 20:58:00,
2013-08-24 14:12:00,68.9,58.7,29.85,ESE,122,1.0,3.0,70,0.00,,---,0.00,VWS V14.01,2013-08-24 21:12:00,
2013-08-24 14:22:00,69.4,59.2,29.85,WNW,294,0.0,5.0,70,0.00,,---,0.00,VWS V14.01,2013-08-24 21:22:00,
2013-08-24 14:28:00,69.7,59.1,29.85,ESE,120,2.0,5.0,69,0.00,,---,0.00,VWS V14.01,2013-08-24 21:28:00,
2013-08-24 14:42:00,69.9,58.8,29.85,ESE,119,3.0,6.0,68,0.00,,---,0.00,VWS V14.01,2013-08-24 21:42:00,
2013-08-24 14:52:00,69.3,58.7,29.85,SE,139,3.0,8.0,69,0.00,,---,0.00,VWS V14.01,2013-08-24 21:52:00,
2013-08-24 14:58:00,69.2,58.6,29.85,ESE,115,1.0,8.0,69,0.00,,---,0.00,VWS V14.01,2013-08-24 21:58:00,
2013-08-24 15:12:00,69.5,58.9,29.85,East,101,1.0,8.0,69,0.00,,---,0.00,VWS V14.01,2013-08-24 22:12:00,
2013-08-24 15:22:00,69.7,59.1,29.85,SE,130,1.0,7.0,69,0.00,,---,0.00,VWS V14.01,2013-08-24 22:22:00,
2013-08-24 15:28:00,69.8,58.8,29.85,SSE,150,5.0,6.0,68,0.00,,---,0.00,VWS V14.01,2013-08-24 22:28:00,
2013-08-24 15:42:00,68.2,58.4,29.84,SE,130,3.0,9.0,71,0.00,,---,0.00,VWS V14.01,2013-08-24 22:42:00,
2013-08-24 15:52:00,67.9,58.1,29.84,SE,130,4.0,8.0,71,0.00,,---,0.00,VWS V14.01,2013-08-24 22:52:00,
2013-08-24 15:58:00,67.7,58.3,29.84,SE,133,6.0,11.0,72,0.00,,---,0.00,VWS V14.01,2013-08-24 22:58:00,
2013-08-24 16:12:00,67.8,58.4,29.84,ESE,115,3.0,11.0,72,0.00,,---,0.00,VWS V14.01,2013-08-24 23:12:00,
2013-08-24 16:22:00,67.7,58.3,29.84,East,96,4.0,11.0,72,0.00,,---,0.00,VWS V14.01,2013-08-24 23:22:00,
2013-08-24 16:28:00,67.3,58.3,29.84,ESE,106,3.0,10.0,73,0.00,,---,0.00,VWS V14.01,2013-08-24 23:28:00,
2013-08-24 16:42:00,67.3,58.7,29.85,ESE,105,3.0,8.0,74,0.00,,---,0.00,VWS V14.01,2013-08-24 23:42:00,
2013-08-24 16:52:00,67.5,58.9,29.85,ESE,106,3.0,4.0,74,0.00,,---,0.00,VWS V14.01,2013-08-24 23:52:00,
2013-08-24 16:58:00,67.8,58.8,29.85,ESE,109,3.0,5.0,73,0.00,,---,0.00,VWS V14.01,2013-08-24 23:58:00,
2013-08-24 17:12:00,67.8,58.8,29.85,ESE,115,4.0,6.0,73,0.00,,---,0.00,VWS V14.01,2013-08-25 00:12:00,
2013-08-24 17:22:00,67.4,58.4,29.85,ESE,116,3.0,6.0,73,0.00,,---,0.00,VWS V14.01,2013-08-25 00:22:00,
2013-08-24 17:28:00,67.2,58.6,29.84,ESE,106,2.0,4.0,74,0.00,,---,0.00,VWS V14.01,2013-08-25 00:28:00,
2013-08-24 17:42:00,66.4,58.2,29.85,ESE,109,2.0,6.0,75,0.00,,---,0.00,VWS V14.01,2013-08-25 00:42:00,
2013-08-24 17:52:00,66.4,58.2,29.85,East,98,5.0,7.0,75,0.00,,---,0.00,VWS V14.01,2013-08-25 00:52:00,
2013-08-24 17:58:00,66.3,58.1,29.85,ESE,112,1.0,5.0,75,0.00,,---,0.00,VWS V14.01,2013-08-25 00:58:00,
2013-08-24 18:12:00,66.0,58.2,29.85,SE,136,0.0,7.0,76,0.00,,---,0.00,VWS V14.01,2013-08-25 01:12:00,
2013-08-24 18:22:00,65.7,57.9,29.85,East,98,3.0,4.0,76,0.00,,---,0.00,VWS V14.01,2013-08-25 01:22:00,
2013-08-24 18:28:00,65.3,57.9,29.85,ESE,108,1.0,6.0,77,0.00,,---,0.00,VWS V14.01,2013-08-25 01:28:00,
2013-08-24 18:42:00,65.0,58.0,29.85,ESE,115,0.0,4.0,78,0.00,,---,0.00,VWS V14.01,2013-08-25 01:42:00,
2013-08-24 18:52:00,64.1,57.4,29.85,North,352,0.0,2.0,79,0.00,,---,0.00,VWS V14.01,2013-08-25 01:52:00,
2013-08-24 18:58:00,63.5,57.6,29.85,ESE,103,0.0,1.0,81,0.00,,---,0.00,VWS V14.01,2013-08-25 01:58:00,
2013-08-24 19:12:00,63.3,57.7,29.85,East,99,0.0,1.0,82,0.00,,---,0.00,VWS V14.01,2013-08-25 02:12:00,
2013-08-24 19:22:00,63.9,57.6,29.85,ESE,109,1.0,4.0,80,0.00,,---,0.00,VWS V14.01,2013-08-25 02:22:00,
2013-08-24 19:28:00,63.9,58.0,29.85,ESE,119,1.0,3.0,81,0.00,,---,0.00,VWS V14.01,2013-08-25 02:28:00,
2013-08-24 19:42:00,63.5,57.6,29.86,SE,130,1.0,3.0,81,0.00,,---,0.00,VWS V14.01,2013-08-25 02:42:00,
2013-08-24 19:52:00,63.3,57.7,29.86,East,101,0.0,1.0,82,0.00,,---,0.00,VWS V14.01,2013-08-25 02:52:00,
2013-08-24 19:58:00,62.7,57.1,29.86,NE,34,0.0,1.0,82,0.00,,---,0.00,VWS V14.01,2013-08-25 02:58:00,
2013-08-24 20:12:00,61.3,56.7,29.86,NNE,20,0.0,1.0,85,0.00,,---,0.00,VWS V14.01,2013-08-25 03:12:00,
2013-08-24 20:22:00,60.8,56.6,29.86,North,3,0.0,1.0,86,0.00,,---,0.00,VWS V14.01,2013-08-25 03:22:00,
2013-08-24 20:28:00,60.4,56.2,29.87,North,3,0.0,0.0,86,0.00,,---,0.00,VWS V14.01,2013-08-25 03:28:00,
2013-08-24 20:42:00,59.5,56.2,29.87,North,349,0.0,0.0,89,0.00,,---,0.00,VWS V14.01,2013-08-25 03:42:00,
2013-08-24 20:52:00,59.0,55.8,29.88,North,349,0.0,0.0,89,0.00,,---,0.00,VWS V14.01,2013-08-25 03:52:00,
2013-08-24 20:58:00,58.7,55.8,29.88,NNW,346,0.0,1.0,90,0.00,,---,0.00,VWS V14.01,2013-08-25 03:58:00,
2013-08-24 21:02:00,58.6,55.7,29.88,NNW,346,0.0,1.0,90,0.00,,---,0.00,VWS V14.01,2013-08-25 04:02:00,
2013-08-24 21:12:00,58.4,55.8,29.88,NW,305,0.0,0.0,91,0.00,,---,0.00,VWS V14.01,2013-08-25 04:12:00,
2013-08-24 21:13:00,58.4,55.8,29.88,NW,305,0.0,0.0,91,0.00,,---,0.00,VWS V14.01,2013-08-25 04:13:00,
2013-08-24 21:22:00,58.2,55.6,29.88,NW,305,0.0,0.0,91,0.00,,---,0.00,VWS V14.01,2013-08-25 04:22:00,
2013-08-24 21:28:00,58.1,55.5,29.88,NW,305,0.0,0.0,91,0.00,,---,0.00,VWS V14.01,2013-08-25 04:28:00,
2013-08-24 21:42:00,57.8,55.5,29.88,NW,312,0.0,1.0,92,0.00,,---,0.00,VWS V14.01,2013-08-25 04:42:00,
2013-08-24 21:52:00,57.6,55.3,29.88,North,354,0.0,0.0,92,0.00,,---,0.00,VWS V14.01,2013-08-25 04:52:00,
2013-08-24 21:58:00,57.5,55.5,29.88,North,353,0.0,0.0,93,0.00,,---,0.00,VWS V14.01,2013-08-25 04:58:00,
2013-08-24 22:12:00,57.4,55.4,29.89,WSW,243,0.0,1.0,93,0.00,,---,0.00,VWS V14.01,2013-08-25 05:12:00,
2013-08-24 22:22:00,57.3,55.3,29.89,NW,315,0.0,1.0,93,0.00,,---,0.00,VWS V14.01,2013-08-25 05:22:00,
2013-08-24 22:28:00,57.3,55.6,29.88,NW,318,0.0,2.0,94,0.00,,---,0.00,VWS V14.01,2013-08-25 05:28:00,
2013-08-24 22:42:00,57.4,55.4,29.89,North,349,0.0,2.0,93,0.00,,---,0.00,VWS V14.01,2013-08-25 05:42:00,
2013-08-24 22:52:00,57.3,55.6,29.88,NW,316,0.0,0.0,94,0.00,,---,0.00,VWS V14.01,2013-08-25 05:52:00,
2013-08-24 22:58:00,57.3,55.6,29.88,NW,316,0.0,0.0,94,0.00,,---,0.00,VWS V14.01,2013-08-25 05:58:00,
2013-08-24 23:12:00,57.1,55.4,29.88,NW,317,0.0,0.0,94,0.00,,---,0.00,VWS V14.01,2013-08-25 06:12:00,
2013-08-24 23:22:00,57.0,55.3,29.88,NNE,17,1.0,1.0,94,0.00,,---,0.00,VWS V14.01,2013-08-25 06:22:00,
2013-08-24 23:28:00,57.0,55.3,29.88,NNE,17,0.0,1.0,94,0.00,,---,0.00,VWS V14.01,2013-08-25 06:28:00,
2013-08-24 23:42:00,57.0,55.3,29.87,NNE,20,0.0,0.0,94,0.00,,---,0.00,VWS V14.01,2013-08-25 06:42:00,
2013-08-24 23:52:00,57.3,55.9,29.87,NNE,19,0.0,1.0,95,0.00,,---,0.00,VWS V14.01,2013-08-25 06:52:00,
2013-08-24 23:58:00,57.4,56.0,29.87,NNE,19,0.0,0.0,95,0.00,,---,0.00,VWS V14.01,2013-08-25 06:58:00,